Lid_Strength_Index
1 1 1 1 1 1 1 1 2 2 3 3 2 4 5 6 7 7 8 5 5 5 3 2 1 -0 -2 -2 -2 -2 -2 -1 -1 -1 -0 0 -0 -1 -1 -2 -1 -1 -1
2 3 3 3 3 3 3 3 3 4 4 4 4 4 4 5 5 6 7 7 5 5 5 3 2 1 0 -1 -2 -2 -2 -2 -2 -2 -1 0 1 0 -0 -1 -1 -1 -1
3 3 4 5 4 3 4 4 4 4 4 4 4 4 5 5 4 5 6 7 6 5 5 4 4 3 3 2 1 -0 -1 -2 -2 -2 -2 -1 0 1 0 -0 -0 -0 0
4 4 4 4 3 3 3 4 5 5 5 6 6 6 5 5 6 5 5 6 7 7 6 5 5 4 4 3 3 2 1 -0 -1 -2 -2 -1 -1 -0 -0 0 0 0 0
4 5 5 6 5 6 6 5 5 6 7 8 7 7 6 6 7 6 6 7 8 8 9 6 5 5 5 4 3 3 3 2 2 1 -0 -2 -2 -1 -1 -0 -0 0 1
7 7 7 8 8 8 8 8 6 7 8 9 7 6 6 6 7 8 7 7 8 7 7 8 9 8 5 4 3 3 2 3 3 2 2 1 -1 -2 -2 -1 -1 -1 -0
10 10 10 10 11 11 11 11 9 9 10 10 9 9 7 8 9 8 7 8 8 8 9 8 8 8 8 5 5 4 3 2 2 3 3 3 2 1 -2 -2 -2 -1 -1
12 12 12 13 13 13 13 13 13 12 12 12 12 10 10 8 10 8 8 10 9 10 10 9 10 11 10 9 7 5 4 4 4 4 4 3 3 3 2 0 -1 -2 -2
13 13 13 13 13 13 14 14 14 14 14 13 13 12 13 14 13 10 12 12 12 12 11 11 10 11 10 9 6 6 6 6 6 5 5 4 4 4 3 2 2 0 -2
14 13 13 13 13 14 14 14 13 14 14 15 13 12 14 15 16 15 14 14 13 12 12 11 11 11 8 9 7 6 5 6 7 7 7 6 5 4 4 3 3 2 1
14 14 14 14 14 14 14 14 14 14 14 15 15 15 14 15 15 17 18 16 14 13 12 12 11 11 9 8 9 7 5 5 6 6 7 7 7 6 5 4 3 3 2
15 15 14 15 15 15 15 14 14 14 14 14 15 14 15 16 16 16 17 16 16 15 12 12 11 11 10 9 7 7 7 7 6 6 7 6 6 7 6 6 5 4 3
16 16 16 16 16 15 15 14 15 15 15 15 15 15 14 14 14 14 15 16 16 15 14 12 11 10 9 10 9 8 8 8 7 7 7 6 6 6 6 6 6 5 4
16 16 16 16 16 15 15 15 15 16 15 16 15 15 14 13 13 13 14 15 16 15 15 14 12 11 10 10 9 8 10 8 8 7 7 7 7 6 6 5 5 7 6
15 16 16 16 16 16 16 16 16 16 16 15 15 14 14 13 13 13 13 13 14 17 16 15 14 11 11 10 10 10 11 9 8 8 8 8 7 7 6 6 5 5 6
16 16 16 16 16 16 16 16 16 16 16 15 14 14 14 13 13 13 13 13 13 15 16 14 13 12 12 11 11 11 11 10 9 9 8 8 8 7 7 7 6 6 5
17 17 16 17 17 17 17 17 16 16 15 15 15 14 14 13 14 14 14 13 13 14 15 15 13 13 13 13 12 12 12 12 12 10 9 8 7 7 7 7 7 6 6
17 17 17 17 17 17 16 16 16 15 15 15 14 14 14 13 14 14 14 14 14 14 14 15 14 13 14 13 13 13 12 11 12 11 9 9 8 8 8 8 7 7 7
17 17 17 17 17 16 16 15 15 14 14 14 14 14 14 14 14 14 14 14 14 12 13 14 15 13 13 13 13 13 13 13 11 10 10 10 10 10 9 9 8 8 9
17 17 17 17 17 16 15 15 14 14 14 14 13 13 13 13 13 13 13 13 12 13 13 14 14 15 14 13 13 14 14 13 13 12 11 10 10 11 10 10 10 10 10
17 17 17 17 16 15 15 15 14 14 14 14 13 12 12 12 10 10 11 12 12 14 14 14 14 14 14 14 14 13 14 14 13 12 13 13 13 12 12 11 12 11 10
17 17 17 16 16 15 13 13 13 14 13 13 13 12 12 11 11 10 9 9 10 12 14 15 14 13 13 13 12 13 13 14 16 11 13 13 12 13 12 12 10 10 10
17 17 16 16 16 15 12 12 12 13 13 13 12 12 12 11 11 11 10 9 9 9 8 10 12 12 12 12 12 13 13 13 13 12 12 13 11 12 11 11 9 9 9
17 17 16 16 16 15 12 12 12 13 13 12 12 11 12 11 11 11 11 11 10 9 9 9 9 10 10 9 9 10 10 11 10 10 10 14 11 12 11 11 9 9 9
17 17 16 17 17 17 12 11 11 13 12 12 11 11 11 11 9 8 9 11 11 10 9 8 8 7 8 8 8 11 13 13 14 12 10 12 12 12 11 11 11 9 9
16 15 15 17 17 18 12 11 11 12 16 13 12 10 8 8 7 7 9 11 13 12 11 11 12 11 11 10 9 10 11 13 13 14 10 12 12 12 14 11 11 11 11